www.pogodaiklimat.ru

Погода и климат >> Архив погоды >> Россия >> Камчатский край >> Усть-Камчатск


ПОГОДА в Усть-Камчатске

  • Прогноз погоды в Усть-Камчатске
  • Монитор погоды в Усть-Камчатске

АРХИВ ПОГОДЫ в Усть-Камчатске

Время (UTC), дата Ветер
(напр.,м/с)
 
Видим.   Явления Облачность Т
(С)
Тd
(С)
f
(%)
Тe
(С)
Тes
(С)
Комфортность P
(гПа)
Po
(гПа)
Тmin
(С)
Tmax
(С)
R
(мм)
R24
(мм)
S
(см)
21 9.06 З 1 10 км слаб. ливневой дождь 10/10 200 м
[Cb cap]
+6.9 +5.6 91 +6 +6 1020.1 1017.2 +4.9 1
00 10.06 СВ 4 10 км слаб. ливневой дождь 10/10 200 м
[Cb cap]
+7.4 +5.8 90 +4 +4 1019.8 1017.0
03 10.06 СВ 6
{11}
20 км {ливн. осадки} 9/6 300 м
[St Ac trans]
+8.2 +4.1 75 +4 +5 1019.5 1016.7
06 10.06 СВ 7-11
{11}
20 км {ливн. осадки} 9/5 300 м
[St Ac trans]
+6.7 +2.6 75 +2 +2 1019.7 1016.8
09 10.06 СВ 6
{11}
20 км 10/10 300 м
[St Ac und]
+5.5 +3.1 85 +1 +1 1019.8 1016.9 +9.0 0.3
12 10.06 СВ 4 10 км 10/8 300 м
[St Ac und]
+4.6 +3.4 92 0 0 1019.6 1016.7
15 10.06 СВ 4 10 км 10/5 600 м
[Sc Ac und]
+4.2 +3.2 93 -0 -0 1019.0 1016.1
18 10.06 СВ 4 20 км 10/5 300 м
[St Ac und]
+4.5 +3.5 93 0 0 1019.3 1016.4
21 10.06 СВ 6 10 км 10/6 300 м
[St Ac und]
+6.4 +3.8 83 +2 +2 1019.5 1016.6 +4.0
00 11.06 СВ 7-10
{10}
10 км 10/6 300 м
[St Ac und]
+5.7 +3.1 83 0 +1 1019.4 1016.5
03 11.06 СВ 6-10
{10}
10 км 10/5 300 м
[St Ac und]
+7.1 +2.5 73 +3 +4 1018.5 1015.6
06 11.06 СВ 6
{10}
10 км 10/5 300 м
[St Ac und]
+6.2 +3.1 81 +2 +2 1018.7 1015.8
09 11.06 С 7
{10}
10 км слаб. ливневой дождь 10/10 200 м
[Cb cap]
+5.4 +4.2 92 -0 -0 1018.9 1016.0 +7.2
12 11.06 СВ 4 10 км {ливн. осадки} 10/10 100 м
[St]
+5.1 +4.4 95 +1 +1 1018.9 1016.0
15 11.06 СВ 4 10 км 10/5 300 м
[St Ac und]
+4.8 +3.8 93 0 0 1019.1 1016.2
18 11.06 В 5 10 км 10/8 300 м
[St Ac und]
+5.1 +1.9 80 +1 +1 1019.4 1016.5
21 11.06 СВ 3 20 км 10/8 300 м
[St Ac und]
+5.2 +2.5 83 +2 +2 1020.1 1017.2 +4.6 0.0
00 12.06 В 3 20 км {ливн. осадки} 10/10 300 м
[St]
+6.3 +3.5 82 +3 +3 1019.9 1017.0
03 12.06 С 4 20 км 9/8 600 м
[Sc Ac trans]
+8.2 +3.0 70 +5 +6 1019.0 1016.2
06 12.06 Ю 6
{10}
50 км 4/0
[Ac trans]
+7.8 +3.6 75 +4 +5 1018.9 1016.1
09 12.06 Ю 4 50 км 1/0
[Ac trans]
+6.0 +2.6 79 +2 +2 1019.1 1016.2 +10.1 0.3
12 12.06 Ю 4 50 км 3/0
[Ci fib]
+3.9 +2.1 88 -1 -1 1019.1 1016.2
15 12.06 Ю 4 50 км 5/4 1000 м
[Sc Ac trans]
+4.6 +2.6 87 0 0 1019.0 1016.1
18 12.06 Ю 4 20 км 10/10 300 м
[St]
+4.9 +2.7 86 +1 +1 1019.1 1016.2
21 12.06 Ю 5 20 км 10/10 600 м
[Sc]
+5.9 +2.8 80 +2 +2 1019.3 1016.4 +3.9
00 13.06 Ю 6
{10}
20 км 8/6 600 м
[Sc Ci fib]
+7.6 +3.6 76 +3 +6 1019.3 1016.4
03 13.06 Ю 8-11
{11}
20 км 8/1 300 м
[St Ci fib]
+8.2 +3.8 74 +4 +6 1018.7 1015.9
06 13.06 Ю 8-10
{11}
20 км 4/1 600 м
[St Ci fib]
+8.1 +3.6 73 +4 +4 1017.7 1014.9
09 13.06 Ю 9-11
{12}
10 км 4/4 200 м
[St]
+7.7 +5.0 83 +3 +3 1017.9 1015.1 +8.4
12 13.06 Ю 4
{11}
10 км 5/3 300 м
[St Ac trans]
+4.2 +2.5 89 -0 -0 1018.1 1015.2
15 13.06 В 3 10 км 3/3 300 м
[St]
-0.1 -0.7 96 -5 -5 1017.5 1014.6
18 13.06 ЮВ 2 10 км 5/5 300 м
[St]
+2.6 +2.1 97 -1 -0 1017.3 1014.4
21 13.06 В 1 10 км 8/5 300 м
[St]
+6.4 +3.1 79 +5 +8 1017.6 1014.7 -0.2
00 14.06 ЮЗ 6 20 км 8/3 1000 м
[Sc Ac trans]
+7.6 +4.1 78 +3 +6 1017.5 1014.7
03 14.06 Ю 5 50 км 4/0
[Ac trans]
+8.4 +4.3 75 +5 +10 1016.9 1014.1
06 14.06 Ю 8 50 км 4/0
[Ac trans Ci fib]
+7.2 +3.7 78 +2 +3 1016.4 1013.5
09 14.06 Ю 6 10 км 8/8 300 м
[St]
+5.5 +3.1 85 +1 +1 1017.2 1014.3 +8.7
12 14.06 Ю 3 10 км 6/3 600 м
[Sc Ac trans]
+4.5 +2.5 87 +1 +1 1018.1 1015.2
15 14.06 ЮВ 3 10 км 6/3 1000 м
[Sc Ac trans]
+0.3 -0.8 92 -4 -4 1017.9 1015.0
18 14.06 ЮВ 2 20 км 6/0
[Ac trans]
+1.1 +0.6 96 -3 -2 1018.8 1015.9
21 14.06 С 2 10 км 10/6 300 м
[St Ac und]
+7.1 +4.6 84 +5 +6 1020.2 1017.3 -0.1
00 15.06 ЮЗ 4 20 км 8/6 600 м
[Sc Ci fib]
+9.1 +5.1 76 +6 +10 1021.1 1018.3
03 15.06 ЮВ 2 20 км 8/8 1000 м
[Cb calv Ac und]
+9.0 +5.7 80 +7 +10 1021.1 1018.3
06 15.06 Ю 6 50 км 4/0
[Ac trans]
+9.2 +5.2 76 +6 +7 1021.9 1019.1
09 15.06 Ю 35
{10}
10 км 4/4 200 м
[St]
+5.5 +4.8 95 -5 -5 1023.3 1020.4 +9.6
12 15.06 Ю 4 500 м ?/? +4.4 +4.2 99 -0 -0 1024.0 1021.1
15 15.06 Ю 2 500 м туман ?/? +4.0 +3.8 99 +1 +1 1024.6 1021.7
18 15.06 ЮВ 2 500 м туман ?/? +3.1 +2.9 99 -0 -0 1025.3 1022.4
21 15.06 Ю 5 500 м туман ?/? +4.7 +4.6 99 -0 -0 1025.6 1022.7 +3.1
00 16.06 Ю 6 10 км {туман} 8/8 1000 м
[Sc Ac trans]
+7.6 +5.4 86 +3 +5 1025.1 1022.2
03 16.06 Ю 6 10 км туман на расстоянии 8/6 1000 м
[Sc Ac trans Ci fib]
+10.2 +4.4 67 +7 +9 1023.9 1021.1
06 16.06 ЮЗ 8 10 км туман на расстоянии 9/0
[Ac trans Ci fib]
+7.4 +4.4 81 +2 +3 1023.3 1020.5
09 16.06 СЗ 1 10 км туман на расстоянии 9/0
[Ac trans Ci fib]
+5.6 +3.2 85 +4 +5 1022.8 1019.9 +10.2
12 16.06 С 1 10 км 10/0
[Ac trans Ci fib]
+5.5 +3.6 88 +4 +4 1022.4 1019.5
15 16.06 З 1 10 км 8/0
[Ac trans Ci fib]
+4.2 +3.5 95 +3 +3 1021.6 1018.7
18 16.06 Ю 1 10 км 10/0
[Ac trans Ci fib]
+5.1 +4.2 94 +4 +4 1021.2 1018.3

 

Местоположение метеостанции Усть-Камчатск (Камчатский край, Россия): широта 56.22 долгота 162.70 высота над уровнем моря 30 м.

В архиве по умолчанию представлена погода в Усть-Камчатске за последнюю неделю. Архивные данные за месяц целиком и за предыдущие месяцы, начиная с января 2011 года, Вы можете получить, выбрав интересующий диапазон дат из раскрывающегося списка и нажав кнопку "Ввод!".


*Определитесь, кто Вы:
робот инопланетянин человек

Внимание! Время в таблицах - всемирное. Для получения местного времени необходимо прибавить поправку, которая равна 12 ч.

Смотрите также архив погоды в соседних городах и на ближайших метеорологических станциях:

Погода на Мысе Африка (Камчатский край, Россия) (37 км)
Погода в Ключах (Камчатский край, Россия) (118 км)
Погода на Мысе Озерном (Камчатский край, Россия) (162 км)
Погода в Козыревске (Камчатский край, Россия) (181 км)
Погода на Острове Беринга (Камчатский край, Россия) (230 км)
Погода в Эссо (Камчатский край, Россия) (250 км)
Погода в Долиновке (Камчатский край, Россия) (262 км)
Погода в Семячике (Камчатский край, Россия) (294 км)
Погода в Тигиле (Камчатский край, Россия) (301 км)
Погода в Мильково (Камчатский край, Россия) (315 км)

Пояснения к столбцам:

Ветер - указаны скорость ветра в м/с - средняя за 10 мин, порывы в срок и между сроками (в фигурных скобках) и направление, откуда дует ветер: С - северный, СВ - северо-восточный, В - восточный, ЮВ - юго-восточный, Ю - южный, ЮЗ - юго-западный, З - западный, СЗ - северо-западный.
Видимость - горизонтальная дальность видимости в метрах или километрах. При видимости от 1 до 10 км при отсутствии осадков обычно наблюдается дымка, при ухудшении видимости до 1 км и менее - туман. В сухую погоду видимость может ухудшаться дымом, пылью или мглою.
Явления - указаны атмосферные явления, наблюдавшиеся в срок или в последний час перед сроком; фигурными скобками обозначены явления, наблюдавшиеся между сроками (за 1-3 часа до срока); квадратными скобками обозначены град или гололедные отложения с указанием их диаметра в мм.
Облачность - указаны через наклонную черту общая и нижняя облачность в баллах и высота нижней границы облаков в метрах; квадратными скобками обозначены формы облаков: Ci - перистые, Cs - перисто-слоистые, Cc - перисто-кучевые, Ac - высококучевые, As - высокослоистые, Sc - слоисто-кучевые, Ns - слоисто-дождевые, Cu - кучевые, Cb - кучево-дождевые. Подробнее классификацию облаков см. в Атласе облаков (PDF).
T - Температура воздуха - температура, измеренная на высоте 2 м над землей.
Td - Температура точки росы - температура, при понижении до которой содержащийся в воздухе водяной пар достигнет насыщения.
f - Относительная влажность воздуха - влажноcть воздуха, измеренная на высоте 2 м над землей.
Te - Эффективная температура - температура, которую ощущает одетый по сезону человек в тени. Характеристика душности погоды. При расчете учитывается влияние влажности воздуха и скорости ветра на теплоощущения человека.
Tes - Эффективная температура на солнце - температура, которую ощущает человек, с поправкой на солнечный нагрев. Характеристика знойности погоды. Зависит от высоты солнца над горизонтом, облачности и скорости ветра. Ночью, в пасмурную погоду, а также при ветре 12 м/с и более поправка равна нулю.
P - Атмосферное давление - приведенное к уровню моря атмосферное давление.
Po - Атмосферное давление - измеренное на уровне метеостанции атмосферное давление.
Tmin - Минимальная температура - минимум температуры воздуха на высоте 2 м над землей.
Tmax - Максимальная температура - максимум температуры воздуха на высоте 2 м над землей.
R - Количество осадков - Количество выпавших осадков за период времени, мм. При наведении курсора мыши на число - период времени, за который выпало указанное количество осадков.
R24 - Количество осадков - Количество выпавших осадков за 24 часа, мм.
S - Снежный покров - Высота снежного покрова, см. При наведении курсора мыши на число - состояние снежного покрова и степень покрытия местности в баллах.